contact:dominique.lefevre@mio.osupytheas.fr, maurice.libes@osupytheas.fr, didier.mallarino@osupytheas.fr
Project:EMSO http://www.emso-fr.org/EMSO-France
Depth: 2436.0 m
Title:EMSO Ligure Ouest : Data MII capteur AQUADOPP
Date,Latitude,Longitude,X_East,Y_North,Z_Up,Amplitude_X,Amplitude_Y,Amplitude_Z,Batterie,SoundSpeed,Heading,Pitch,Roll,Pressure,TIS,Speed,Direction
, degrees North, degrees East, m.s-1, m.s-1,m.s-1, 1, 1, 1, Volt, m.s-1, degree, degree, degree, dbar, degree_C, m.s-1, degree
2023-08-04T00:04:03,42.805,6.029,0.001,0.024,0.01,103.0,103.0,102.0,13.3,1505.2,337.9,-0.8,1.8,2471.529,13.29,0.024,2.4
2023-08-04T00:07:03,42.805,6.029,-0.017,0.02,-0.033,103.0,104.0,100.0,13.4,1505.2,326.6,-0.8,1.8,2471.511,13.29,0.026,319.6
2023-08-04T00:10:03,42.805,6.029,0.003,0.0,-0.019,104.0,102.0,102.0,13.4,1505.2,350.1,-0.8,1.8,2471.493,13.29,0.003,90.0
2023-08-04T00:13:03,42.805,6.029,-0.035,0.026,-0.048,103.0,103.0,102.0,13.4,1505.2,341.9,-0.8,1.8,2471.476,13.29,0.043,306.6
2023-08-04T00:16:03,42.805,6.029,0.004,-0.004,-0.031,104.0,103.0,101.0,13.4,1505.2,329.6,-0.7,1.8,2471.467,13.29,0.005,135.0
2023-08-04T00:19:03,42.805,6.029,-0.005,0.014,-0.008,102.0,102.0,103.0,13.4,1505.2,333.4,-0.7,1.8,2471.469,13.29,0.014,340.4
2023-08-04T00:22:03,42.805,6.029,-0.014,0.03,-0.016,103.0,104.0,102.0,13.3,1505.2,328.5,-0.8,1.8,2471.508,13.29,0.033,335.0
2023-08-04T00:25:03,42.805,6.029,-0.005,0.019,-0.001,104.0,104.0,101.0,13.3,1505.2,329.3,-0.7,1.8,2471.446,13.29,0.019,345.3
2023-08-04T00:28:03,42.805,6.029,0.0,0.022,0.012,104.0,102.0,101.0,13.4,1505.2,343.8,-0.7,1.8,2471.443,13.29,0.022,0.0
2023-08-04T00:31:03,42.805,6.029,-0.011,0.005,-0.004,103.0,102.0,102.0,13.3,1505.2,336.2,-0.8,1.8,2471.449,13.29,0.012,294.4
2023-08-04T00:34:03,42.805,6.029,-0.003,0.006,-0.015,103.0,102.0,101.0,13.3,1505.2,331.2,-0.8,1.8,2471.433,13.29,0.006,333.4
2023-08-04T00:37:03,42.805,6.029,-0.008,0.0,0.007,101.0,103.0,102.0,13.4,1505.2,326.0,-0.8,1.8,2471.411,13.29,0.008,270.0
2023-08-04T00:40:03,42.805,6.029,0.005,0.01,-0.038,103.0,103.0,101.0,13.4,1505.2,339.6,-0.8,1.8,2471.394,13.29,0.011,26.6
2023-08-04T00:43:03,42.805,6.029,-0.005,0.011,-0.054,103.0,103.0,101.0,13.4,1505.2,329.3,-0.8,1.8,2471.442,13.29,0.012,335.6
2023-08-04T00:46:03,42.805,6.029,-0.01,0.019,-0.036,107.0,106.0,100.0,13.4,1505.2,349.1,-0.8,1.8,2471.452,13.29,0.021,332.2
2023-08-04T00:49:03,42.805,6.029,0.0,0.0,-0.017,102.0,102.0,102.0,13.4,1505.2,322.7,-0.8,1.8,2471.44,13.29,0.0,0.0
2023-08-04T00:52:03,42.805,6.029,-0.002,-0.004,-0.035,102.0,105.0,102.0,13.4,1505.2,340.4,-0.8,1.8,2471.434,13.29,0.004,206.6
2023-08-04T00:55:03,42.805,6.029,-0.005,0.012,-0.005,104.0,104.0,102.0,13.3,1505.2,326.3,-0.7,1.8,2471.443,13.3,0.013,337.4
2023-08-04T00:58:03,42.805,6.029,-0.02,0.02,-0.012,103.0,103.0,103.0,13.3,1505.2,328.2,-0.8,1.8,2471.447,13.3,0.028,315.0
2023-08-04T01:04:03,42.805,6.029,-0.005,0.011,-0.045,105.0,104.0,102.0,13.3,1505.2,339.4,-0.8,1.8,2471.417,13.29,0.012,335.6
2023-08-04T01:07:03,42.805,6.029,0.018,0.002,0.017,103.0,102.0,102.0,13.3,1505.2,326.3,-0.8,1.8,2471.458,13.29,0.018,83.7
2023-08-04T01:10:03,42.805,6.029,0.009,0.019,-0.047,101.0,103.0,102.0,13.3,1505.2,331.6,-0.8,1.8,2471.426,13.29,0.021,25.3
2023-08-04T01:13:03,42.805,6.029,0.0,0.008,-0.039,104.0,102.0,102.0,13.4,1505.2,326.8,-0.7,1.8,2471.422,13.29,0.008,0.0
2023-08-04T01:16:03,42.805,6.029,-0.019,0.001,-0.044,103.0,102.0,102.0,13.4,1505.2,345.6,-0.8,1.8,2471.426,13.29,0.019,273.0
2023-08-04T01:19:03,42.805,6.029,0.002,0.016,0.016,103.0,102.0,101.0,13.4,1505.2,321.0,-0.8,1.8,2471.399,13.29,0.016,7.1
2023-08-04T01:22:03,42.805,6.029,-0.009,-0.001,-0.042,103.0,102.0,102.0,13.3,1505.2,340.5,-0.8,1.8,2471.404,13.29,0.009,263.7
2023-08-04T01:25:03,42.805,6.029,0.0,0.018,-0.025,104.0,102.0,101.0,13.4,1505.2,350.5,-0.8,1.8,2471.405,13.29,0.018,0.0
2023-08-04T01:28:03,42.805,6.029,-0.003,0.008,-0.023,104.0,104.0,101.0,13.4,1505.2,333.4,-0.8,1.8,2471.403,13.29,0.008,339.4
2023-08-04T01:31:03,42.805,6.029,-0.001,0.021,-0.025,101.0,103.0,103.0,13.4,1505.2,344.4,-0.8,1.8,2471.391,13.29,0.021,357.3
2023-08-04T01:34:03,42.805,6.029,-0.01,-0.001,-0.007,102.0,103.0,102.0,13.4,1505.2,317.7,-0.8,1.8,2471.369,13.29,0.01,264.3
2023-08-04T01:37:03,42.805,6.029,0.008,0.01,-0.035,103.0,102.0,102.0,13.4,1505.2,341.5,-0.7,1.8,2471.387,13.29,0.012,38.7
2023-08-04T01:40:03,42.805,6.029,0.0,0.007,-0.031,105.0,103.0,101.0,13.3,1505.2,341.5,-0.7,1.8,2471.38,13.29,0.007,0.0
2023-08-04T01:43:03,42.805,6.029,-0.014,0.019,-0.009,103.0,104.0,101.0,13.4,1505.2,347.4,-0.8,1.8,2471.372,13.29,0.023,323.6
2023-08-04T01:46:03,42.805,6.029,0.008,-0.002,0.008,102.0,102.0,101.0,13.4,1505.2,327.5,-0.7,1.8,2471.368,13.29,0.008,104.0
2023-08-04T01:49:03,42.805,6.029,-0.028,0.004,-0.003,104.0,104.0,102.0,13.4,1505.2,322.3,-0.8,1.8,2471.375,13.29,0.028,278.1
2023-08-04T01:52:03,42.805,6.029,0.007,-0.005,-0.028,102.0,103.0,101.0,13.4,1505.2,335.6,-0.8,1.8,2471.359,13.29,0.008,125.5
2023-08-04T01:55:03,42.805,6.029,0.003,0.01,-0.02,102.0,104.0,101.0,13.4,1505.2,340.1,-0.8,1.8,2471.391,13.29,0.01,16.7
2023-08-04T01:58:03,42.805,6.029,0.024,-0.004,0.01,106.0,103.0,100.0,13.4,1505.2,327.1,-0.8,1.8,2471.391,13.29,0.024,99.5
2023-08-04T02:04:03,42.805,6.029,-0.007,0.003,-0.042,103.0,102.0,101.0,13.4,1505.2,318.4,-0.8,1.8,2471.414,13.29,0.007,293.2
2023-08-04T02:07:03,42.805,6.029,0.0,-0.009,0.009,103.0,103.0,101.0,13.4,1505.2,323.7,-0.8,1.8,2471.38,13.29,0.009,180.0
2023-08-04T02:10:03,42.805,6.029,0.009,-0.015,-0.024,102.0,102.0,100.0,13.4,1505.2,326.0,-0.8,1.8,2471.408,13.29,0.017,149.0
2023-08-04T02:13:03,42.805,6.029,0.0,0.004,-0.041,104.0,103.0,101.0,13.4,1505.2,336.1,-0.8,1.8,2471.381,13.29,0.004,0.0
2023-08-04T02:16:03,42.805,6.029,0.0,0.011,-0.029,103.0,103.0,102.0,13.3,1505.2,323.4,-0.7,1.8,2471.4,13.29,0.011,0.0
2023-08-04T02:19:03,42.805,6.029,-0.014,0.009,0.009,103.0,102.0,102.0,13.4,1505.2,322.2,-0.8,1.8,2471.364,13.29,0.016,302.7
2023-08-04T02:22:03,42.805,6.029,0.012,-0.001,-0.046,103.0,104.0,100.0,13.4,1505.2,334.2,-0.8,1.8,2471.361,13.29,0.012,94.8
2023-08-04T02:25:03,42.805,6.029,0.014,-0.002,-0.044,104.0,103.0,101.0,13.3,1505.2,327.8,-0.8,1.8,2471.367,13.29,0.014,98.1
2023-08-04T02:28:03,42.805,6.029,-0.008,0.005,-0.039,102.0,103.0,102.0,13.3,1505.2,325.1,-0.7,1.8,2471.306,13.3,0.009,302.0
2023-08-04T02:31:03,42.805,6.029,-0.001,-0.007,-0.009,104.0,102.0,101.0,13.3,1505.2,339.5,-0.7,1.9,2471.337,13.3,0.007,188.1
2023-08-04T02:34:03,42.805,6.029,-0.004,-0.02,-0.056,103.0,102.0,101.0,13.4,1505.2,333.4,-0.7,1.8,2471.303,13.3,0.02,191.3
2023-08-04T02:37:03,42.805,6.029,-0.002,0.007,0.004,102.0,102.0,101.0,13.4,1505.2,336.3,-0.8,1.8,2471.364,13.29,0.007,344.1
2023-08-04T02:40:03,42.805,6.029,-0.018,0.015,-0.037,102.0,104.0,102.0,13.4,1505.2,327.2,-0.7,1.8,2471.358,13.29,0.023,309.8
2023-08-04T02:43:03,42.805,6.029,-0.016,0.008,-0.032,104.0,102.0,102.0,13.4,1505.2,336.9,-0.8,1.8,2471.334,13.3,0.017,296.6
2023-08-04T02:46:03,42.805,6.029,0.01,0.013,-0.025,105.0,101.0,102.0,13.3,1505.2,340.8,-0.7,1.9,2471.27,13.29,0.016,37.6
2023-08-04T02:49:03,42.805,6.029,0.005,0.0,-0.039,101.0,103.0,101.0,13.4,1505.2,324.8,-0.8,1.8,2471.285,13.29,0.005,90.0
2023-08-04T02:52:03,42.805,6.029,0.019,0.013,-0.015,101.0,103.0,102.0,13.3,1505.2,329.2,-0.7,1.8,2471.348,13.29,0.023,55.6
2023-08-04T02:55:03,42.805,6.029,-0.016,0.013,-0.029,104.0,103.0,101.0,13.4,1505.2,348.9,-0.8,1.8,2471.338,13.3,0.02,309.1
2023-08-04T02:58:03,42.805,6.029,-0.02,0.024,-0.007,103.0,104.0,101.0,13.4,1505.2,350.7,-0.8,1.8,2471.321,13.3,0.031,320.2
2023-08-04T03:04:03,42.805,6.029,0.0,-0.004,-0.017,104.0,101.0,102.0,13.3,1505.2,342.4,-0.8,1.8,2471.327,13.29,0.004,180.0
2023-08-04T03:07:03,42.805,6.029,0.006,0.008,0.0,103.0,103.0,102.0,13.4,1505.2,350.9,-0.8,1.8,2471.36,13.29,0.01,36.9
2023-08-04T03:10:03,42.805,6.029,-0.011,0.003,0.003,104.0,103.0,102.0,13.4,1505.2,333.8,-0.8,1.9,2471.344,13.29,0.011,285.3
2023-08-04T03:13:03,42.805,6.029,0.0,0.009,0.009,104.0,105.0,101.0,13.3,1505.2,337.2,-0.8,1.8,2471.337,13.29,0.009,0.0
2023-08-04T03:16:03,42.805,6.029,-0.012,0.015,-0.035,103.0,103.0,103.0,13.4,1505.2,328.8,-0.8,1.8,2471.315,13.3,0.019,321.3
2023-08-04T03:19:03,42.805,6.029,-0.009,0.006,-0.032,103.0,103.0,103.0,13.3,1505.2,332.9,-0.8,1.8,2471.335,13.3,0.01,303.7
2023-08-04T03:22:03,42.805,6.029,0.003,0.003,-0.041,103.0,103.0,101.0,13.3,1505.2,326.3,-0.8,1.8,2471.316,13.3,0.004,45.0
2023-08-04T03:25:03,42.805,6.029,-0.018,0.003,-0.049,104.0,102.0,101.0,13.3,1505.2,341.5,-0.8,1.8,2471.311,13.3,0.018,279.5
2023-08-04T03:28:03,42.805,6.029,-0.004,0.022,-0.017,104.0,103.0,100.0,13.3,1505.2,340.1,-0.8,1.8,2471.32,13.3,0.022,349.7
2023-08-04T03:31:03,42.805,6.029,0.006,0.003,-0.043,103.0,103.0,101.0,13.4,1505.2,340.8,-0.8,1.8,2471.29,13.3,0.006,63.4
2023-08-04T03:34:03,42.805,6.029,0.0,-0.015,-0.046,106.0,104.0,101.0,13.3,1505.2,338.6,-0.8,1.8,2471.326,13.3,0.015,180.0
2023-08-04T03:37:03,42.805,6.029,0.0,-0.003,-0.032,104.0,103.0,101.0,13.3,1505.2,328.5,-0.8,1.8,2471.289,13.3,0.003,180.0
2023-08-04T03:40:03,42.805,6.029,-0.002,-0.012,-0.012,104.0,104.0,101.0,13.3,1505.2,325.4,-0.8,1.8,2471.332,13.3,0.012,189.5
2023-08-04T03:43:03,42.805,6.029,-0.003,0.006,-0.019,103.0,101.0,102.0,13.4,1505.2,328.8,-0.8,1.8,2471.273,13.3,0.006,333.4
2023-08-04T03:46:03,42.805,6.029,-0.003,0.007,-0.026,103.0,102.0,101.0,13.4,1505.2,321.0,-0.7,1.8,2471.302,13.3,0.007,336.8
2023-08-04T03:49:03,42.805,6.029,0.011,0.0,-0.039,102.0,102.0,101.0,13.4,1505.2,326.0,-0.7,1.8,2471.265,13.3,0.011,90.0
2023-08-04T03:52:03,42.805,6.029,0.004,-0.001,-0.016,102.0,103.0,101.0,13.4,1505.2,335.5,-0.8,1.8,2471.293,13.3,0.004,104.0
2023-08-04T03:55:03,42.805,6.029,0.001,-0.007,-0.032,102.0,104.0,101.0,13.4,1505.2,328.5,-0.8,1.8,2471.271,13.3,0.007,171.9
2023-08-04T03:58:03,42.805,6.029,0.004,-0.009,-0.021,104.0,102.0,101.0,13.4,1505.2,338.4,-0.8,1.8,2471.267,13.3,0.009,156.0
2023-08-04T04:04:03,42.805,6.029,-0.013,-0.007,-0.077,103.0,103.0,101.0,13.3,1505.2,334.8,-0.8,1.8,2471.35,13.29,0.014,241.7
2023-08-04T04:07:03,42.805,6.029,-0.003,-0.003,-0.038,101.0,103.0,101.0,13.3,1505.2,332.9,-0.8,1.8,2471.332,13.29,0.004,225.0
2023-08-04T04:10:03,42.805,6.029,-0.02,0.019,-0.007,103.0,101.0,105.0,13.4,1505.2,351.5,-0.7,1.8,2471.284,13.29,0.027,313.5
2023-08-04T04:13:03,42.805,6.029,-0.014,0.018,-0.018,102.0,103.0,102.0,13.3,1505.2,339.1,-0.8,1.8,2471.299,13.29,0.022,322.1
2023-08-04T04:16:03,42.805,6.029,0.004,-0.016,-0.027,103.0,103.0,101.0,13.3,1505.2,349.1,-0.8,1.8,2471.285,13.29,0.016,166.0
2023-08-04T04:19:03,42.805,6.029,0.01,0.009,-0.02,102.0,103.0,100.0,13.4,1505.2,349.1,-0.8,1.8,2471.309,13.29,0.013,48.0
2023-08-04T04:22:03,42.805,6.029,-0.009,-0.018,-0.033,103.0,103.0,101.0,13.4,1505.2,320.9,-0.8,1.8,2471.305,13.29,0.02,206.6
2023-08-04T04:25:03,42.805,6.029,0.003,-0.003,-0.04,102.0,102.0,102.0,13.4,1505.2,339.4,-0.8,1.8,2471.28,13.29,0.004,135.0
2023-08-04T04:28:03,42.805,6.029,-0.003,0.011,0.001,103.0,102.0,101.0,13.4,1505.2,322.0,-0.8,1.8,2471.311,13.29,0.011,344.7
2023-08-04T04:31:03,42.805,6.029,-0.016,-0.002,-0.035,103.0,102.0,101.0,13.3,1505.2,328.8,-0.8,1.8,2471.247,13.29,0.016,262.9
2023-08-04T04:34:03,42.805,6.029,0.008,0.0,-0.027,102.0,103.0,101.0,13.4,1505.2,326.8,-0.7,1.8,2471.311,13.29,0.008,90.0
2023-08-04T04:37:03,42.805,6.029,-0.002,-0.003,-0.038,103.0,101.0,102.0,13.3,1505.2,328.8,-0.8,1.8,2471.304,13.29,0.003,213.7
2023-08-04T04:40:03,42.805,6.029,0.0,-0.006,-0.007,102.0,103.0,102.0,13.4,1505.2,327.9,-0.8,1.8,2471.298,13.29,0.006,180.0
2023-08-04T04:43:03,42.805,6.029,0.029,-0.023,-0.017,103.0,102.0,101.0,13.4,1505.2,349.9,-0.8,1.8,2471.301,13.29,0.037,128.4
2023-08-04T04:46:03,42.805,6.029,-0.007,0.0,-0.049,103.0,104.0,100.0,13.4,1505.2,327.9,-0.8,1.8,2471.288,13.29,0.007,270.0
2023-08-04T04:49:03,42.805,6.029,-0.005,0.014,-0.016,102.0,103.0,103.0,13.3,1505.2,351.7,-0.7,1.8,2471.316,13.3,0.014,340.4
2023-08-04T04:52:03,42.805,6.029,-0.004,0.019,-0.017,104.0,103.0,100.0,13.3,1505.2,333.8,-0.8,1.8,2471.33,13.29,0.019,348.1
2023-08-04T04:55:03,42.805,6.029,0.023,-0.007,-0.022,102.0,102.0,101.0,13.4,1505.2,339.7,-0.7,1.8,2471.338,13.29,0.024,106.9
2023-08-04T04:58:03,42.805,6.029,-0.017,-0.004,-0.03,104.0,103.0,100.0,13.3,1505.2,326.5,-0.7,1.8,2471.304,13.3,0.017,256.8
2023-08-04T05:04:03,42.805,6.029,-0.029,0.008,-0.034,102.0,102.0,100.0,13.3,1505.2,331.3,-0.8,1.8,2471.354,13.29,0.03,285.4
2023-08-04T05:07:03,42.805,6.029,-0.005,0.007,-0.015,102.0,102.0,101.0,13.3,1505.2,336.6,-0.8,1.8,2471.362,13.29,0.008,324.5
2023-08-04T05:10:03,42.805,6.029,-0.032,-0.007,-0.051,103.0,103.0,101.0,13.4,1505.2,329.5,-0.8,1.8,2471.362,13.29,0.032,257.7
2023-08-04T05:13:03,42.805,6.029,0.0,0.003,-0.023,102.0,103.0,101.0,13.4,1505.2,345.6,-0.8,1.8,2471.338,13.29,0.003,0.0
2023-08-04T05:16:03,42.805,6.029,-0.007,0.003,-0.005,102.0,103.0,101.0,13.4,1505.2,332.5,-0.8,1.8,2471.327,13.29,0.007,293.2
2023-08-04T05:19:03,42.805,6.029,0.0,0.016,-0.009,103.0,102.0,102.0,13.4,1505.2,320.1,-0.7,1.8,2471.376,13.29,0.016,0.0
2023-08-04T05:22:03,42.805,6.029,-0.02,-0.004,-0.04,103.0,103.0,101.0,13.4,1505.2,342.6,-0.8,1.8,2471.374,13.29,0.02,258.7
2023-08-04T05:25:03,42.805,6.029,0.031,-0.01,-0.005,101.0,104.0,101.0,13.3,1505.2,340.8,-0.8,1.8,2471.349,13.29,0.032,107.9
2023-08-04T05:28:03,42.805,6.029,-0.006,0.0,-0.022,102.0,104.0,100.0,13.4,1505.2,327.8,-0.7,1.8,2471.366,13.29,0.006,270.0
2023-08-04T05:31:03,42.805,6.029,-0.002,0.003,0.013,102.0,102.0,102.0,13.3,1505.2,325.7,-0.8,1.8,2471.364,13.29,0.003,326.3
2023-08-04T05:34:03,42.805,6.029,0.026,0.006,0.005,103.0,103.0,100.0,13.3,1505.2,322.1,-0.7,1.8,2471.356,13.29,0.026,77.0
2023-08-04T05:37:03,42.805,6.029,0.025,-0.016,-0.033,101.0,102.0,102.0,13.3,1505.2,324.4,-0.8,1.8,2471.324,13.29,0.029,122.6
2023-08-04T05:40:03,42.805,6.029,0.027,-0.025,-0.063,103.0,101.0,102.0,13.4,1505.2,329.7,-0.7,1.8,2471.344,13.29,0.036,132.8
2023-08-04T05:43:03,42.805,6.029,0.001,0.01,-0.02,103.0,103.0,101.0,13.3,1505.2,331.2,-0.8,1.8,2471.365,13.29,0.01,5.7
2023-08-04T05:46:03,42.805,6.029,0.008,-0.011,-0.037,103.0,102.0,100.0,13.4,1505.2,349.1,-0.8,1.8,2471.341,13.29,0.013,144.0
2023-08-04T05:49:03,42.805,6.029,-0.007,0.02,-0.023,101.0,102.0,101.0,13.3,1505.2,322.2,-0.8,1.8,2471.335,13.29,0.021,340.7
2023-08-04T05:52:03,42.805,6.029,-0.011,-0.023,-0.052,102.0,102.0,101.0,13.4,1505.2,319.2,-0.7,1.8,2471.361,13.29,0.025,205.6
2023-08-04T05:55:03,42.805,6.029,0.01,-0.009,-0.027,102.0,101.0,102.0,13.4,1505.2,339.8,-0.7,1.8,2471.353,13.29,0.013,132.0
2023-08-04T05:58:03,42.805,6.029,-0.022,0.003,-0.032,104.0,103.0,100.0,13.3,1505.2,346.5,-0.8,1.8,2471.323,13.29,0.022,277.8
2023-08-04T06:04:03,42.805,6.029,-0.019,0.026,-0.014,102.0,102.0,100.0,13.3,1505.2,337.7,-0.8,1.8,2471.392,13.29,0.032,323.8
2023-08-04T06:07:03,42.805,6.029,-0.002,0.0,-0.011,103.0,102.0,101.0,13.3,1505.2,338.4,-0.7,1.8,2471.459,13.29,0.002,270.0
2023-08-04T06:10:03,42.805,6.029,0.002,0.007,-0.007,102.0,102.0,101.0,13.4,1505.2,319.9,-0.8,1.8,2471.366,13.29,0.007,15.9
2023-08-04T06:13:03,42.805,6.029,-0.024,0.03,0.012,101.0,103.0,102.0,13.3,1505.2,319.0,-0.8,1.8,2471.354,13.29,0.038,321.3
2023-08-04T06:16:03,42.805,6.029,-0.017,0.016,-0.04,102.0,102.0,101.0,13.4,1505.2,338.6,-0.8,1.8,2471.397,13.29,0.023,313.3
2023-08-04T06:19:03,42.805,6.029,0.001,0.015,-0.018,102.0,101.0,101.0,13.3,1505.2,328.6,-0.8,1.8,2471.429,13.29,0.015,3.8
2023-08-04T06:22:03,42.805,6.029,-0.015,0.009,-0.013,101.0,103.0,100.0,13.3,1505.2,333.4,-0.8,1.8,2471.384,13.29,0.017,301.0
2023-08-04T06:25:03,42.805,6.029,-0.023,0.032,-0.032,102.0,102.0,100.0,13.3,1505.2,333.8,-0.8,1.8,2471.396,13.29,0.039,324.3
2023-08-04T06:28:03,42.805,6.029,0.007,-0.001,-0.029,102.0,102.0,102.0,13.4,1505.2,338.2,-0.8,1.8,2471.389,13.29,0.007,98.1
2023-08-04T06:31:03,42.805,6.029,-0.013,-0.001,-0.022,102.0,102.0,100.0,13.3,1505.2,337.9,-0.7,1.8,2471.427,13.29,0.013,265.6
2023-08-04T06:34:03,42.805,6.029,0.028,-0.004,-0.012,102.0,102.0,100.0,13.4,1505.2,336.1,-0.8,1.8,2471.419,13.29,0.028,98.1
2023-08-04T06:37:03,42.805,6.029,0.027,-0.004,0.008,102.0,102.0,101.0,13.4,1505.2,333.4,-0.8,1.8,2471.429,13.29,0.027,98.4
2023-08-04T06:40:03,42.805,6.029,-0.005,-0.002,-0.026,102.0,102.0,101.0,13.4,1505.2,319.4,-0.7,1.8,2471.398,13.29,0.005,248.2
2023-08-04T06:43:03,42.805,6.029,-0.003,0.011,-0.02,102.0,102.0,101.0,13.4,1505.2,323.1,-0.8,1.8,2471.383,13.29,0.011,344.7
2023-08-04T06:46:03,42.805,6.029,0.005,-0.009,-0.009,101.0,103.0,101.0,13.4,1505.2,336.6,-0.8,1.8,2471.422,13.29,0.01,150.9
2023-08-04T06:49:03,42.805,6.029,0.005,-0.007,-0.028,103.0,100.0,101.0,13.4,1505.2,325.1,-0.7,1.8,2471.396,13.29,0.008,144.5
2023-08-04T06:52:03,42.805,6.029,0.018,0.001,-0.031,102.0,102.0,101.0,13.3,1505.2,343.1,-0.8,1.8,2471.414,13.29,0.018,86.8
2023-08-04T06:55:03,42.805,6.029,0.013,-0.005,-0.023,102.0,103.0,100.0,13.4,1505.2,343.2,-0.8,1.8,2471.411,13.29,0.013,111.0
2023-08-04T06:58:03,42.805,6.029,-0.011,-0.012,-0.049,102.0,103.0,101.0,13.4,1505.2,341.2,-0.7,1.8,2471.418,13.29,0.016,222.5
2023-08-04T07:04:03,42.805,6.029,0.007,0.001,-0.037,102.0,101.0,101.0,13.4,1505.2,347.0,-0.8,1.8,2471.495,13.29,0.007,81.9
2023-08-04T07:07:03,42.805,6.029,-0.002,-0.015,-0.006,102.0,103.0,100.0,13.4,1505.2,347.0,-0.8,1.8,2471.449,13.29,0.015,187.6
2023-08-04T07:10:03,42.805,6.029,0.003,0.011,-0.001,102.0,102.0,101.0,13.4,1505.2,338.4,-0.7,1.8,2471.424,13.29,0.011,15.3
2023-08-04T07:13:03,42.805,6.029,-0.005,-0.009,-0.039,103.0,105.0,100.0,13.3,1505.2,334.8,-0.8,1.8,2471.446,13.29,0.01,209.1
2023-08-04T07:16:03,42.805,6.029,0.005,0.002,-0.019,103.0,102.0,100.0,13.4,1505.2,343.3,-0.8,1.8,2471.435,13.29,0.005,68.2
2023-08-04T07:19:03,42.805,6.029,-0.013,-0.009,-0.039,102.0,102.0,100.0,13.4,1505.2,337.7,-0.8,1.8,2471.473,13.29,0.015,235.3
2023-08-04T07:22:03,42.805,6.029,-0.028,0.018,-0.029,102.0,103.0,101.0,13.3,1505.2,339.9,-0.8,1.8,2471.409,13.29,0.033,302.7
2023-08-04T07:25:03,42.805,6.029,-0.018,-0.027,-0.074,102.0,102.0,101.0,13.4,1505.2,321.0,-0.8,1.8,2471.434,13.29,0.032,213.7
2023-08-04T07:28:03,42.805,6.029,-0.015,0.011,-0.059,103.0,102.0,101.0,13.3,1505.2,341.9,-0.8,1.9,2471.442,13.29,0.018,306.3
2023-08-04T07:31:03,42.805,6.029,-0.016,-0.017,-0.032,103.0,103.0,101.0,13.4,1505.2,330.7,-0.7,1.8,2471.425,13.29,0.023,223.3
2023-08-04T07:34:03,42.805,6.029,0.021,0.009,-0.022,102.0,102.0,100.0,13.4,1505.2,344.7,-0.8,1.8,2471.471,13.29,0.022,66.8
2023-08-04T07:37:03,42.805,6.029,-0.006,-0.017,-0.067,101.0,102.0,101.0,13.4,1505.2,320.1,-0.8,1.8,2471.455,13.29,0.018,199.4
2023-08-04T07:40:03,42.805,6.029,-0.001,-0.021,-0.041,103.0,103.0,101.0,13.4,1505.2,325.4,-0.8,1.8,2471.45,13.29,0.021,182.7
2023-08-04T07:43:03,42.805,6.029,0.013,-0.009,-0.041,103.0,102.0,101.0,13.4,1505.2,340.3,-0.7,1.8,2471.457,13.29,0.015,124.7
2023-08-04T07:46:03,42.805,6.029,0.008,-0.003,-0.046,102.0,102.0,102.0,13.4,1505.2,323.6,-0.8,1.8,2471.457,13.29,0.008,110.6
2023-08-04T07:49:03,42.805,6.029,-0.007,0.009,-0.044,102.0,103.0,101.0,13.3,1505.2,317.7,-0.7,1.8,2471.444,13.29,0.011,322.1
2023-08-04T07:52:03,42.805,6.029,-0.005,-0.003,-0.037,101.0,102.0,101.0,13.4,1505.2,339.5,-0.8,1.8,2471.443,13.29,0.005,239.0
2023-08-04T07:55:03,42.805,6.029,-0.023,0.0,-0.039,103.0,101.0,100.0,13.4,1505.2,334.8,-0.8,1.8,2471.441,13.29,0.023,270.0
2023-08-04T07:58:03,42.805,6.029,0.0,0.01,-0.036,102.0,102.0,101.0,13.4,1505.2,348.0,-0.8,1.8,2471.43,13.29,0.01,0.0
2023-08-04T08:04:03,42.805,6.029,-0.022,0.007,-0.021,103.0,102.0,101.0,13.4,1505.2,343.1,-0.7,1.8,2471.484,13.29,0.023,287.6
2023-08-04T08:07:03,42.805,6.029,-0.013,-0.001,-0.045,103.0,103.0,102.0,13.4,1505.2,336.1,-0.7,1.8,2471.493,13.29,0.013,265.6
2023-08-04T08:10:03,42.805,6.029,-0.009,-0.001,0.004,102.0,102.0,101.0,13.4,1505.2,328.2,-0.8,1.8,2471.483,13.29,0.009,263.7
2023-08-04T08:13:03,42.805,6.029,-0.005,-0.01,-0.055,102.0,103.0,101.0,13.4,1505.2,338.4,-0.7,1.8,2471.458,13.29,0.011,206.6
2023-08-04T08:16:03,42.805,6.029,-0.014,0.013,-0.03,101.0,101.0,101.0,13.4,1505.2,330.0,-0.8,1.8,2471.473,13.29,0.019,312.9
2023-08-04T08:19:03,42.805,6.029,-0.03,-0.002,-0.063,104.0,103.0,100.0,13.3,1505.2,320.1,-0.7,1.8,2471.473,13.29,0.03,266.2
2023-08-04T08:22:03,42.805,6.029,0.007,-0.004,-0.032,103.0,102.0,101.0,13.4,1505.2,342.3,-0.8,1.8,2471.508,13.29,0.008,119.7
2023-08-04T08:25:03,42.805,6.029,-0.005,0.019,-0.001,102.0,102.0,101.0,13.4,1505.2,339.1,-0.8,1.8,2471.468,13.29,0.019,345.3
2023-08-04T08:28:03,42.805,6.029,-0.021,0.0,-0.028,101.0,103.0,101.0,13.3,1505.2,321.3,-0.8,1.8,2471.467,13.29,0.021,270.0
2023-08-04T08:31:03,42.805,6.029,-0.015,0.017,-0.016,103.0,101.0,100.0,13.4,1505.2,344.0,-0.8,1.8,2471.431,13.29,0.022,318.6
2023-08-04T08:34:03,42.805,6.029,-0.023,-0.002,-0.043,103.0,101.0,101.0,13.4,1505.2,322.0,-0.8,1.8,2471.458,13.29,0.023,265.0
2023-08-04T08:37:03,42.805,6.029,0.001,-0.011,-0.057,103.0,101.0,102.0,13.4,1505.2,327.6,-0.7,1.8,2471.44,13.29,0.011,174.8
2023-08-04T08:40:03,42.805,6.029,-0.006,-0.012,-0.051,102.0,102.0,101.0,13.4,1505.2,331.2,-0.8,1.8,2471.477,13.29,0.013,206.6
2023-08-04T08:43:03,42.805,6.029,-0.015,-0.014,-0.037,103.0,102.0,102.0,13.4,1505.2,326.8,-0.8,1.8,2471.502,13.29,0.02,227.0
2023-08-04T08:46:03,42.805,6.029,-0.008,-0.029,-0.047,102.0,102.0,101.0,13.4,1505.2,344.7,-0.8,1.8,2471.484,13.29,0.03,195.4
2023-08-04T08:49:03,42.805,6.029,-0.017,-0.014,-0.026,102.0,102.0,102.0,13.4,1505.2,332.9,-0.8,1.8,2471.469,13.29,0.022,230.5
2023-08-04T08:52:03,42.805,6.029,-0.009,0.001,-0.039,101.0,100.0,101.0,13.3,1505.2,321.4,-0.8,1.9,2471.462,13.29,0.009,276.3
2023-08-04T08:55:03,42.805,6.029,-0.009,-0.015,-0.018,101.0,102.0,101.0,13.4,1505.2,352.0,-0.8,1.8,2471.484,13.29,0.017,211.0
2023-08-04T08:58:03,42.805,6.029,0.004,-0.021,-0.065,102.0,102.0,100.0,13.3,1505.2,322.1,-0.8,1.8,2471.495,13.29,0.021,169.2
2023-08-04T09:04:03,42.805,6.029,-0.009,0.006,0.009,102.0,104.0,101.0,13.3,1505.2,338.5,-0.8,1.8,2471.511,13.29,0.01,303.7
2023-08-04T09:07:03,42.805,6.029,0.003,-0.004,-0.041,103.0,103.0,101.0,13.3,1505.2,326.6,-0.7,1.8,2471.52,13.29,0.005,143.1
2023-08-04T09:10:03,42.805,6.029,0.001,-0.012,-0.034,102.0,103.0,102.0,13.4,1505.2,337.7,-0.7,1.8,2471.504,13.29,0.012,175.2
2023-08-04T09:13:03,42.805,6.029,0.009,-0.001,0.002,102.0,103.0,100.0,13.4,1505.2,326.9,-0.7,1.8,2471.466,13.29,0.009,96.3
2023-08-04T09:16:03,42.805,6.029,-0.016,0.01,-0.03,103.0,102.0,101.0,13.3,1505.2,349.1,-0.8,1.8,2471.472,13.29,0.018,302.0
2023-08-04T09:19:03,42.805,6.029,0.02,0.005,0.01,102.0,102.0,101.0,13.4,1505.2,327.3,-0.8,1.9,2471.431,13.29,0.02,76.0
2023-08-04T09:22:03,42.805,6.029,-0.007,0.024,0.005,103.0,102.0,101.0,13.4,1505.2,336.0,-0.8,1.8,2471.465,13.29,0.025,343.7
2023-08-04T09:25:03,42.805,6.029,-0.016,0.001,-0.049,103.0,102.0,100.0,13.4,1505.2,332.1,-0.8,1.8,2471.485,13.29,0.016,273.6
2023-08-04T09:28:03,42.805,6.029,0.004,-0.002,-0.021,102.0,103.0,102.0,13.4,1505.2,336.0,-0.8,1.8,2471.434,13.29,0.004,116.6
2023-08-04T09:31:03,42.805,6.029,-0.018,0.019,0.023,101.0,102.0,103.0,13.4,1505.2,332.9,-0.8,1.8,2471.451,13.29,0.026,316.5
2023-08-04T09:34:03,42.805,6.029,-0.002,0.004,-0.041,102.0,102.0,101.0,13.4,1505.2,343.6,-0.7,1.8,2471.462,13.29,0.004,333.4
2023-08-04T09:37:03,42.805,6.029,-0.001,-0.001,0.025,104.0,100.0,101.0,13.4,1505.2,319.7,-0.8,1.8,2471.476,13.29,0.001,225.0
2023-08-04T09:40:03,42.805,6.029,-0.016,0.015,-0.024,102.0,104.0,101.0,13.4,1505.2,339.0,-0.8,1.8,2471.454,13.29,0.021,313.1
2023-08-04T09:43:03,42.805,6.029,-0.033,0.0,-0.061,104.0,101.0,101.0,13.4,1505.2,329.8,-0.8,1.8,2471.436,13.29,0.033,270.0
2023-08-04T09:46:03,42.805,6.029,-0.022,-0.008,-0.055,103.0,101.0,101.0,13.4,1505.2,336.4,-0.8,1.8,2471.459,13.29,0.023,250.0
2023-08-04T09:49:03,42.805,6.029,-0.029,0.005,-0.02,103.0,102.0,102.0,13.4,1505.2,336.2,-0.8,1.8,2471.44,13.29,0.029,279.8
2023-08-04T09:52:03,42.805,6.029,0.015,-0.011,-0.055,103.0,101.0,100.0,13.3,1505.2,327.0,-0.7,1.8,2471.459,13.29,0.018,126.3
2023-08-04T09:55:03,42.805,6.029,-0.008,0.002,-0.041,103.0,102.0,100.0,13.4,1505.2,327.5,-0.8,1.8,2471.469,13.29,0.008,284.0